sat.trackr.live / text

‹ back to catalog

STARLINK-37631

NORAD 69369 · 2026-123S

PAYLOAD ACTIVE UNKNOWN

§ Identity

Operator
Country
US
Launch date
2026-06-04
Launch site
AFETR
Launch vehicle
Mass (kg)
RCS (m²)

Purposes: comms

External: N2YO · Heavens-Above · Gunter

§ Orbital elements

Epoch: 2026-09-20T01:35:43.440000Z

Period
93.85 min
Inclination
53.1591°
Eccentricity
0.0001293
Mean motion
15.34401692 rev/d
Perigee alt
461.8 km
Apogee alt
463.6 km
Semi-major
6,840.8 km
B*
7.1559e-4
RAAN
143.7258°
Arg perigee
98.3294°
Mean anomaly
261.7855°
Rev number
1,680

§ Raw data

STARLINK-376311 69369U 26123S   26263.06647500  .00023880  00000+0  71559-3 0  99942 69369  53.1591 143.7258 0001293  98.3294 261.7855 15.34401692 16803

JSON: /api/v1/satellites/69369 · /tle

For live sub-satellite position, see the globe view (requires WebGL).

§ Visibility from observer

Set your observer location to see the next 7 days of passes ≥ 10°. The values pass through the URL so the page stays shareable.

No JS? Fill the form by hand. The geolocation button needs JavaScript.